CY-SAT-1

导读 | 星芒AI

CY-SAT-1 是由中国自主研发的一颗小型科学实验卫星,主要用于空间环境探测和通信技术验证。该卫星搭载了多种有效载荷,包括高灵敏度传感器和新型通信模块,旨在提升我国在微小卫星领域的技术水平。CY-SAT-1 于近期成功发射,运行稳定,为后续卫星任务积累了宝贵经验,具有重要的科研与应用价值。

基本信息
目录编号:
61501
目录名称:
CY-SAT-1
国际标识:
1998-067WZ
轨道中心:
EARTH
卫星名称:
CY-SAT-1
卫星全名:
CY-SAT-1
卫星状态:
已陨落 最后检测时间 2025-01-14
发射日期:
1998-11-20 UTC
国别 :
美国 (US)
星等 :
--
轨道信息
数据来源 国际轨道数据
星历时间: 2025-01-08T15:57:33+0800
轨道信息已过期339天
半长轴: 6540.904km
偏心率: 0.0002121
轨道倾角: 51.610°
近地点辐角 115.676°
升交点赤经 6.503°
平近点角 244.448°
近地点: 161.381km
远地点: 164.157km
周期: 87.744分钟
每日圈数: 16.411421
详细信息
使用方式:
暂无